Showing default

STSAT 3, 39422

Orbit data source: Space-Track

STSAT 3, 39422 is a payload satellite owned by KARI (KR) in SSO that was launched on Thu, 21 Nov 2013 UTC via a DNEPR launch vehicle from the Orenburg, Russia (OREN). Payload-class satellites include a variety of spacecraft equipped with specific instruments for various scientific and technological missions. These include communications satellites like Starlink; space stations such as the ISS; scientific satellites like the Hubble; Earth observation satellites from companies like Planet Labs, Umbra, and HawkEye 360; GPS; miniature CubeSats for education and research; and military/defense satellites.

Loading next visibility...
Identifier
39422, 2013-066G
Orbit
SSO
Country
Flag of UnknownUnknown / SKOR
Related business
Manufacturer
SatRec Initiative
Mission
Operational Civil Ast/Imaging
Bus & Motor
STSAT, Unknown motor
Mass
170 kg wet, 170 kg dry
Launch date (UTC)
2013-11-21 (12 years ago)
Launch vehicle
DNEPR
Launch site
Orenburg, Russia (OREN)
Object type
Payload
Rocket body
Debris
Shape & HBR
Box + 2 Pan, 0.9 m
Radar Cross Section
0.919 m², Medium (>0.1 m² and < 1m²)

Expand to show TLE details & history
Last TLE update: 10 hours ago

TLE from 10 hours ago
0 STSAT 3
1 39422U 13066G   25300.53101925  .00005239  00000-0  41560-3 0  9990
2 39422  97.5854 269.9438 0016001  96.1399 264.1649 15.00839674649280
Epoch: 2025-10-27T12:44Z
TLE epoch observation values (Epoch: 2025-10-27T12:44:40.063Z)
Latitude
0.00001°
Longitude
42.64534°
Altitude
568.512 km
Speed
7.576 km/s
True Right ascension
17h 59m 46s
True Declination
0° 00' 00"
Sunlit
Object was in daylight at epoch
Visualization orbit readout
Latitude
Unknown
Longitude
Unknown
Altitude
Unknown
Speed
Unknown
Apparent Right ascension
Unknown
Apparent Declination
Unknown
Sunlit
N/A
Visualization observer readout
Local Sidereal Time
18:16:12
Azimuth
Unknown
Elevation
Unknown
Doppler factor
Unknown
Orbital elements
Apogee altitude
572.409 km
Perigee altitude
550.201 km
Semi-major axis
6,939.442 km
Eccentricity
0.0016
Inclination
97.5854°
RAAN
269.9438°
Arg. of periapsis
96.1399°
True anomaly
263.98253°
Mean anomaly
264.1649°
Eccentric anomaly
264.07371°
Mean motion
3.75454 °/min
Orbital period
95.88 mins
BSTAR
0.0004156
Loading maneuver chart data...
Computing Atmospheric mass density...
Loading historical data...
Loading historical data...
Loading historical data...
Loading historical data...
Loading historical data...
Loading historical data...
Loading historical data...

Documentation

Showing up to 5 results
|